This is the latest recevied weather packets stored in our database for station/object KD8OUK. If no packets are shown the sender has not sent any weather packets the latest 10 day(s).
| Time | Temp. | Humidity | Pressure | Rain* | Wind** | Luminosity | Snow |
|---|---|---|---|---|---|---|---|
| 1778082016 | 12.78° C | 69% | 1013.4 hPa | 0 mm | - | - | - |
| 1778081726 | 12.22° C | 70% | 1013.1 hPa | 0 mm | - | - | - |
| 1778081418 | 12.78° C | 72% | 1013.1 hPa | 0 mm | - | - | - |
| 1778081128 | 11.67° C | 75% | 1012.9 hPa | 0 mm | - | - | - |
| 1778080820 | 11.67° C | 76% | 1012.8 hPa | 0 mm | - | - | - |
| 1778080531 | 11.11° C | 76% | 1012.7 hPa | 0 mm | - | - | - |
| 1778080223 | 11.11° C | 80% | 1012.6 hPa | 0 mm | - | - | - |
| 1778079927 | 10.56° C | 82% | 1012.6 hPa | 0 mm | - | - | - |
| 1778079625 | 10° C | 82% | 1012.8 hPa | 0 mm | - | - | - |
| 1778079317 | 10° C | 85% | 1012.9 hPa | 0 mm | - | - | - |
| 1778079021 | 9.44° C | 86% | 1012.7 hPa | 0 mm | - | - | - |
| 1778078721 | 9.44° C | 85% | 1012.6 hPa | 0 mm | - | - | - |
| 1778078419 | 9.44° C | 84% | 1012.6 hPa | 0 mm | - | - | - |
| 1778078116 | 9.44° C | 83% | 1012.6 hPa | 0 mm | - | - | - |
| 1778077832 | 9.44° C | 85% | 1012.6 hPa | 0 mm | - | - | - |
| 1778077525 | 8.89° C | 87% | 1012.6 hPa | 0 mm | - | - | - |
| 1778077216 | 9.44° C | 86% | 1012.6 hPa | 0 mm | - | - | - |
| 1778076927 | 9.44° C | 84% | 1012.4 hPa | 0 mm | - | - | - |
| 1778076619 | 9.44° C | 86% | 1012.1 hPa | 0 mm | - | - | - |
| 1778076329 | 8.89° C | 85% | 1012.1 hPa | 0 mm | - | - | - |
| 1778076021 | 8.89° C | 88% | 1012.1 hPa | 0 mm | - | - | - |
| 1778075731 | 8.89° C | 87% | 1012.1 hPa | 0 mm | - | - | - |
| 1778075424 | 8.33° C | 87% | 1012.1 hPa | 0 mm | - | - | - |
| 1778075115 | 8.33° C | 89% | 1012.1 hPa | 0 mm | - | - | - |
| 1778074825 | 7.78° C | 92% | 1012.1 hPa | 0 mm | - | - | - |
* Rain latest hour (hover to see other rain measurements)
** Current wind speed in m/s (hover to see current wind gust speed)